Location: Unspecified
(0.0000°N, 0.0000°E)
Time: 05:46:52
(UTC+00:00)

XW-2F - Pass Details

Date: 19 July 2020
Orbit: 501 x 522 km, 97.5° (Epoch: 13 August)

Event Time Altitude Azimuth Distance (km) Brightness Sun altitude
Rises 18:35:58 0° 203° (SSW) 2,623 ? -6.9°
Reaches altitude 10° 18:39:11 10° 234° (SW) 1,739 ? -7.7°
Maximum altitude 18:40:44 12° 259° (WSW) 1,603 ? -8.0°
Drops below altitude 10° 18:42:17 10° 283° (WNW) 1,740 ? -8.4°
Sets 18:45:31 0° 314° (NW) 2,627 ? -9.1°
